星链-5945 (STARLINK-5945 )

导读 | 豆包AI

STARLINK-5945是美国SpaceX公司星链星座的一员,于2023年3月24日发射入轨。星链项目旨在构建全球低轨卫星互联网,为地面基础设施覆盖不足的区域提供高速低延迟网络服务。该卫星运行在近地轨道,作为星链持续扩容的组成部分,助力实现全球网络覆盖,同时项目推进也引发了关于太空拥堵和天文观测影响的讨论。

基本信息
目录编号:
56018
目录名称:
STARLINK-5945
国际标识:
2023-042AJ
轨道中心:
EARTH
卫星名称:
星链-5945
卫星全名:
星链-5945 (STARLINK-5945 )
卫星状态:
在轨 (已飞行1133 天)
发射日期:
2023-03-24 UTC
国别 :
美国 (US)
星等 :
--
轨道信息
数据来源 国际轨道数据
星历时间: 2026-04-30T08:37:21+0800
10小时前
查看轨道信息
半长轴: 6861.19km
偏心率: 0.0000908
轨道倾角: 43.002°
近地点辐角 304.659°
升交点赤经 115.564°
平近点角 55.418°
近地点: 482.43km
远地点: 483.676km
周期: 94.267分钟
每日圈数: 15.275789
详细信息
固有亮度:
5
最大亮度:
2.5
卫星平台:
Starlink v1.5
覆盖范围:
全球
运营商:
太空探索技术公司
运营商所在国:
美国
制造商(研发单位):
太空探索技术公司
制造商所在国:
美国
使用方式:
暂无
卫星简介
星链(Starlink)计划是由太空探索技术公司(SpaceX)提出的一个巨型低轨卫星互联网星座项目,计划在2019年至2024年间在太空搭建由约1.2万颗卫星组成的“星链”网络,其中1584颗将部署在地球上空550千米处的近地轨道,并从2020年开始工作。该卫星仍在工作。
2D轨道图
3D轨道图
轨道高度分析图
轨道倾角分析图
轨道综合分析图
查看轨道综合分析图